Year,Month,Day,Hour,Minute,Value (Times are PST for temperature in C)
2008,08,18,00,00,21.20
2008,08,18,00,01,21.20
2008,08,18,00,02,21.20
2008,08,18,00,03,21.20
2008,08,18,00,04,21.20
2008,08,18,00,05,21.20
2008,08,18,00,06,21.20
2008,08,18,00,07,21.10
2008,08,18,00,08,21.10
2008,08,18,00,09,21.10
2008,08,18,00,10,21.10
2008,08,18,00,11,21.00
2008,08,18,00,12,20.90
2008,08,18,00,13,20.80
2008,08,18,00,14,20.40
2008,08,18,00,15,20.10
2008,08,18,00,16,19.80
2008,08,18,00,17,19.50
2008,08,18,00,18,19.10
2008,08,18,00,19,18.80
2008,08,18,00,20,18.60
2008,08,18,00,21,18.40
2008,08,18,00,22,18.30
2008,08,18,00,23,18.10
2008,08,18,00,24,18.00
2008,08,18,00,25,17.90
2008,08,18,00,26,17.70
2008,08,18,00,27,17.50
2008,08,18,00,28,17.40
2008,08,18,00,29,17.30
2008,08,18,00,30,17.30
2008,08,18,00,31,17.20
2008,08,18,00,32,17.20
2008,08,18,00,33,17.20
2008,08,18,00,34,17.20
2008,08,18,00,35,17.20
2008,08,18,00,36,17.20
2008,08,18,00,37,17.20
2008,08,18,00,38,17.20
2008,08,18,00,39,17.30
2008,08,18,00,40,17.40
2008,08,18,00,41,17.40
2008,08,18,00,42,17.50
2008,08,18,00,43,17.70
2008,08,18,00,44,17.80
2008,08,18,00,45,18.00
2008,08,18,00,46,18.10
2008,08,18,00,47,18.20
2008,08,18,00,48,18.30
2008,08,18,00,49,18.40
2008,08,18,00,50,18.50
2008,08,18,00,51,18.60
2008,08,18,00,52,18.70
2008,08,18,00,53,18.90
2008,08,18,00,54,18.90
2008,08,18,00,55,19.00
2008,08,18,00,56,19.10
2008,08,18,00,57,19.20
2008,08,18,00,58,19.30
2008,08,18,00,59,19.40
2008,08,18,01,00,19.50
2008,08,18,01,01,19.60
2008,08,18,01,02,19.60
2008,08,18,01,03,19.70
2008,08,18,01,04,19.70
2008,08,18,01,05,19.80
2008,08,18,01,06,19.90
2008,08,18,01,07,19.90
2008,08,18,01,08,19.90
2008,08,18,01,09,20.00
2008,08,18,01,10,20.10
2008,08,18,01,11,20.10
2008,08,18,01,12,20.20
2008,08,18,01,13,20.20
2008,08,18,01,14,20.30
2008,08,18,01,15,20.30
2008,08,18,01,16,20.40
2008,08,18,01,17,20.50
2008,08,18,01,18,20.60
2008,08,18,01,19,20.70
2008,08,18,01,20,20.80
2008,08,18,01,21,20.80
2008,08,18,01,22,20.80
2008,08,18,01,23,20.90
2008,08,18,01,24,20.90
2008,08,18,01,25,20.90
2008,08,18,01,26,21.00
2008,08,18,01,27,21.00
2008,08,18,01,28,21.00
2008,08,18,01,29,21.00
2008,08,18,01,30,21.00
2008,08,18,01,31,21.10
2008,08,18,01,32,21.10
2008,08,18,01,33,21.10
2008,08,18,01,34,21.20
2008,08,18,01,35,21.20
2008,08,18,01,36,21.20
2008,08,18,01,37,21.20
2008,08,18,01,38,21.20
2008,08,18,01,39,21.20
2008,08,18,01,40,21.20
2008,08,18,01,41,21.20
2008,08,18,01,42,21.10
2008,08,18,01,43,21.10
2008,08,18,01,44,21.10
2008,08,18,01,45,21.20
2008,08,18,01,46,21.20
2008,08,18,01,47,21.30
2008,08,18,01,48,21.30
2008,08,18,01,49,21.30
2008,08,18,01,50,21.30
2008,08,18,01,51,21.40
2008,08,18,01,52,21.40
2008,08,18,01,53,21.40
2008,08,18,01,54,21.40
2008,08,18,01,55,21.40
2008,08,18,01,56,21.30
2008,08,18,01,57,21.30
2008,08,18,01,58,21.20
2008,08,18,01,59,21.10
2008,08,18,02,00,21.00
2008,08,18,02,01,21.00
2008,08,18,02,02,20.90
2008,08,18,02,03,20.80
2008,08,18,02,04,20.80
2008,08,18,02,05,20.70
2008,08,18,02,06,20.70
2008,08,18,02,07,20.60
2008,08,18,02,08,20.60
2008,08,18,02,09,20.60
2008,08,18,02,10,20.60
2008,08,18,02,11,20.60
2008,08,18,02,12,20.60
2008,08,18,02,13,20.60
2008,08,18,02,14,20.60
2008,08,18,02,15,20.60
2008,08,18,02,16,20.70
2008,08,18,02,17,20.70
2008,08,18,02,18,20.70
2008,08,18,02,19,20.80
2008,08,18,02,20,20.80
2008,08,18,02,21,20.80
2008,08,18,02,22,20.80
2008,08,18,02,23,20.90
2008,08,18,02,24,20.90
2008,08,18,02,25,21.00
2008,08,18,02,26,21.00
2008,08,18,02,27,21.00
2008,08,18,02,28,21.00
2008,08,18,02,29,21.10
2008,08,18,02,30,21.10
2008,08,18,02,31,21.10
2008,08,18,02,32,21.20
2008,08,18,02,33,21.20
2008,08,18,02,34,21.20
2008,08,18,02,35,21.20
2008,08,18,02,36,21.20
2008,08,18,02,37,21.20
2008,08,18,02,38,21.30
2008,08,18,02,39,21.30
2008,08,18,02,40,21.30
2008,08,18,02,41,21.30
2008,08,18,02,42,21.30
2008,08,18,02,43,21.30
2008,08,18,02,44,21.40
2008,08,18,02,45,21.40
2008,08,18,02,46,21.40
2008,08,18,02,47,21.40
2008,08,18,02,48,21.40
2008,08,18,02,49,21.50
2008,08,18,02,50,21.60
2008,08,18,02,51,21.50
2008,08,18,02,52,21.40
2008,08,18,02,53,21.30
2008,08,18,02,54,21.30
2008,08,18,02,55,21.30
2008,08,18,02,56,21.30
2008,08,18,02,57,21.30
2008,08,18,02,58,21.20
2008,08,18,02,59,21.20
2008,08,18,03,00,21.00
2008,08,18,03,01,20.90
2008,08,18,03,02,20.80
2008,08,18,03,03,20.70
2008,08,18,03,04,20.50
2008,08,18,03,05,20.50
2008,08,18,03,06,20.40
2008,08,18,03,07,20.30
2008,08,18,03,08,20.30
2008,08,18,03,09,20.20
2008,08,18,03,10,20.20
2008,08,18,03,11,20.10
2008,08,18,03,12,20.00
2008,08,18,03,13,19.90
2008,08,18,03,14,19.80
2008,08,18,03,15,19.70
2008,08,18,03,16,19.70
2008,08,18,03,17,19.60
2008,08,18,03,18,19.40
2008,08,18,03,19,19.30
2008,08,18,03,20,19.10
2008,08,18,03,21,19.00
2008,08,18,03,22,18.90
2008,08,18,03,23,18.80
2008,08,18,03,24,18.70
2008,08,18,03,25,18.60
2008,08,18,03,26,18.60
2008,08,18,03,27,18.60
2008,08,18,03,28,18.60
2008,08,18,03,29,18.60
2008,08,18,03,30,18.60
2008,08,18,03,31,18.60
2008,08,18,03,32,18.60
2008,08,18,03,33,18.60
2008,08,18,03,34,18.60
2008,08,18,03,35,18.60
2008,08,18,03,36,18.60
2008,08,18,03,37,18.60
2008,08,18,03,38,18.50
2008,08,18,03,39,18.50
2008,08,18,03,40,18.50
2008,08,18,03,41,18.50
2008,08,18,03,42,18.50
2008,08,18,03,43,18.50
2008,08,18,03,44,18.40
2008,08,18,03,45,18.40
2008,08,18,03,46,18.30
2008,08,18,03,47,18.30
2008,08,18,03,48,18.30
2008,08,18,03,49,18.20
2008,08,18,03,50,18.20
2008,08,18,03,51,18.20
2008,08,18,03,52,18.10
2008,08,18,03,53,18.10
2008,08,18,03,54,18.00
2008,08,18,03,55,17.90
2008,08,18,03,56,17.90
2008,08,18,03,57,17.80
2008,08,18,03,58,17.70
2008,08,18,03,59,17.70
2008,08,18,04,00,17.60
2008,08,18,04,01,17.60
2008,08,18,04,02,17.60
2008,08,18,04,03,17.60
2008,08,18,04,04,17.50
2008,08,18,04,05,17.50
2008,08,18,04,06,17.50
2008,08,18,04,07,17.40
2008,08,18,04,08,17.40
2008,08,18,04,09,17.30
2008,08,18,04,10,17.30
2008,08,18,04,11,17.30
2008,08,18,04,12,17.20
2008,08,18,04,13,17.10
2008,08,18,04,14,17.10
2008,08,18,04,15,17.00
2008,08,18,04,16,16.90
2008,08,18,04,17,16.90
2008,08,18,04,18,16.80
2008,08,18,04,19,16.70
2008,08,18,04,20,16.70
2008,08,18,04,21,16.70
2008,08,18,04,22,16.60
2008,08,18,04,23,16.60
2008,08,18,04,24,16.60
2008,08,18,04,25,16.60
2008,08,18,04,26,16.60
2008,08,18,04,27,16.60
2008,08,18,04,28,16.60
2008,08,18,04,29,16.60
2008,08,18,04,30,16.60
2008,08,18,04,31,16.60
2008,08,18,04,32,16.60
2008,08,18,04,33,16.70
2008,08,18,04,34,16.70
2008,08,18,04,35,16.70
2008,08,18,04,36,16.70
2008,08,18,04,37,16.70
2008,08,18,04,38,16.70
2008,08,18,04,39,16.70
2008,08,18,04,40,16.70
2008,08,18,04,41,16.70
2008,08,18,04,42,16.70
2008,08,18,04,43,16.80
2008,08,18,04,44,16.80
2008,08,18,04,45,16.80
2008,08,18,04,46,16.90
2008,08,18,04,47,17.00
2008,08,18,04,48,17.00
2008,08,18,04,49,17.00
2008,08,18,04,50,17.10
2008,08,18,04,51,17.10
2008,08,18,04,52,17.10
2008,08,18,04,53,17.20
2008,08,18,04,54,17.20
2008,08,18,04,55,17.20
2008,08,18,04,56,17.20
2008,08,18,04,57,17.30
2008,08,18,04,58,17.30
2008,08,18,04,59,17.30
2008,08,18,05,00,17.30
2008,08,18,05,01,17.30
2008,08,18,05,02,17.30
2008,08,18,05,03,17.30
2008,08,18,05,04,17.30
2008,08,18,05,05,17.30
2008,08,18,05,06,17.30
2008,08,18,05,07,17.30
2008,08,18,05,08,17.30
2008,08,18,05,09,17.30
2008,08,18,05,10,17.30
2008,08,18,05,11,17.30
2008,08,18,05,12,17.30
2008,08,18,05,13,17.30
2008,08,18,05,14,17.30
2008,08,18,05,15,17.30
2008,08,18,05,16,17.20
2008,08,18,05,17,17.20
2008,08,18,05,18,17.20
2008,08,18,05,19,17.20
2008,08,18,05,20,17.20
2008,08,18,05,21,17.20
2008,08,18,05,22,17.20
2008,08,18,05,23,17.20
2008,08,18,05,24,17.20
2008,08,18,05,25,17.20
2008,08,18,05,26,17.20
2008,08,18,05,27,17.20
2008,08,18,05,28,17.20
2008,08,18,05,29,17.20
2008,08,18,05,30,17.10
2008,08,18,05,31,17.10
2008,08,18,05,32,17.10
2008,08,18,05,33,17.10
2008,08,18,05,34,17.10
2008,08,18,05,35,17.10
2008,08,18,05,36,17.10
2008,08,18,05,37,17.10
2008,08,18,05,38,17.10
2008,08,18,05,39,17.10
2008,08,18,05,40,17.10
2008,08,18,05,41,17.10
2008,08,18,05,42,17.00
2008,08,18,05,43,17.00
2008,08,18,05,44,17.00
2008,08,18,05,45,17.00
2008,08,18,05,46,17.00
2008,08,18,05,47,17.00
2008,08,18,05,48,17.00
2008,08,18,05,49,17.00
2008,08,18,05,50,17.00
2008,08,18,05,51,17.00
2008,08,18,05,52,17.00
2008,08,18,05,53,17.00
2008,08,18,05,54,16.90
2008,08,18,05,55,16.90
2008,08,18,05,56,16.90
2008,08,18,05,57,16.90
2008,08,18,05,58,16.90
2008,08,18,05,59,16.90
2008,08,18,06,00,16.90
2008,08,18,06,01,16.80
2008,08,18,06,02,16.80
2008,08,18,06,03,16.80
2008,08,18,06,04,16.80
2008,08,18,06,05,16.80
2008,08,18,06,06,16.80
2008,08,18,06,07,16.80
2008,08,18,06,08,16.70
2008,08,18,06,09,16.70
2008,08,18,06,10,16.70
2008,08,18,06,11,16.70
2008,08,18,06,12,16.60
2008,08,18,06,13,16.60
2008,08,18,06,14,16.40
2008,08,18,06,15,16.40
2008,08,18,06,16,16.40
2008,08,18,06,17,16.40
2008,08,18,06,18,16.40
2008,08,18,06,19,16.40
2008,08,18,06,20,16.40
2008,08,18,06,21,16.40
2008,08,18,06,22,16.30
2008,08,18,06,23,16.30
2008,08,18,06,24,16.30
2008,08,18,06,25,16.20
2008,08,18,06,26,16.20
2008,08,18,06,27,16.20
2008,08,18,06,28,16.20
2008,08,18,06,29,16.20
2008,08,18,06,30,16.10
2008,08,18,06,31,16.10
2008,08,18,06,32,16.10
2008,08,18,06,33,16.10
2008,08,18,06,34,16.10
2008,08,18,06,35,16.10
2008,08,18,06,36,16.10
2008,08,18,06,37,16.10
2008,08,18,06,38,16.10
2008,08,18,06,39,16.10
2008,08,18,06,40,16.10
2008,08,18,06,41,16.10
2008,08,18,06,42,16.10
2008,08,18,06,43,16.10
2008,08,18,06,44,16.10
2008,08,18,06,45,16.10
2008,08,18,06,46,16.10
2008,08,18,06,47,16.10
2008,08,18,06,48,16.10
2008,08,18,06,49,16.10
2008,08,18,06,50,16.10
2008,08,18,06,51,16.10
2008,08,18,06,52,16.10
2008,08,18,06,53,16.10
2008,08,18,06,54,16.10
2008,08,18,06,55,16.10
2008,08,18,06,56,16.10
2008,08,18,06,57,16.10
2008,08,18,06,58,16.10
2008,08,18,06,59,16.10
2008,08,18,07,00,16.10
2008,08,18,07,01,16.10
2008,08,18,07,02,16.00
2008,08,18,07,03,15.90
2008,08,18,07,04,15.90
2008,08,18,07,05,15.90
2008,08,18,07,06,15.90
2008,08,18,07,07,15.90
2008,08,18,07,08,15.90
2008,08,18,07,09,15.90
2008,08,18,07,10,15.90
2008,08,18,07,11,15.90
2008,08,18,07,12,15.80
2008,08,18,07,13,15.80
2008,08,18,07,14,15.80
2008,08,18,07,15,15.80
2008,08,18,07,16,15.80
2008,08,18,07,17,15.80
2008,08,18,07,18,15.80
2008,08,18,07,19,15.80
2008,08,18,07,20,15.80
2008,08,18,07,21,15.70
2008,08,18,07,22,15.70
2008,08,18,07,23,15.70
2008,08,18,07,24,15.70
2008,08,18,07,25,15.70
2008,08,18,07,26,15.60
2008,08,18,07,27,15.60
2008,08,18,07,28,15.70
2008,08,18,07,29,15.70
2008,08,18,07,30,15.70
2008,08,18,07,31,15.70
2008,08,18,07,32,15.80
2008,08,18,07,33,15.80
2008,08,18,07,34,15.80
2008,08,18,07,35,15.80
2008,08,18,07,36,15.80
2008,08,18,07,37,15.90
2008,08,18,07,38,15.90
2008,08,18,07,39,16.00
2008,08,18,07,40,16.10
2008,08,18,07,41,16.10
2008,08,18,07,42,16.10
2008,08,18,07,43,16.20
2008,08,18,07,44,16.20
2008,08,18,07,45,16.30
2008,08,18,07,46,16.30
2008,08,18,07,47,16.30
2008,08,18,07,48,16.40
2008,08,18,07,49,16.40
2008,08,18,07,50,16.40
2008,08,18,07,51,16.60
2008,08,18,07,52,16.70
2008,08,18,07,53,16.70
2008,08,18,07,54,16.80
2008,08,18,07,55,16.90
2008,08,18,07,56,16.90
2008,08,18,07,57,16.90
2008,08,18,07,58,16.90
2008,08,18,07,59,16.90
2008,08,18,08,00,16.90
2008,08,18,08,01,16.90
2008,08,18,08,02,16.90
2008,08,18,08,03,17.00
2008,08,18,08,04,17.00
2008,08,18,08,05,17.00
2008,08,18,08,06,16.90
2008,08,18,08,07,16.90
2008,08,18,08,08,16.90
2008,08,18,08,09,17.00
2008,08,18,08,10,17.00
2008,08,18,08,11,17.00
2008,08,18,08,12,17.10
2008,08,18,08,13,17.10
2008,08,18,08,14,17.10
2008,08,18,08,15,17.10
2008,08,18,08,16,17.10
2008,08,18,08,17,17.10
2008,08,18,08,18,17.10
2008,08,18,08,19,17.20
2008,08,18,08,20,17.20
2008,08,18,08,21,17.20
2008,08,18,08,22,17.30
2008,08,18,08,23,17.30
2008,08,18,08,24,17.30
2008,08,18,08,25,17.50
2008,08,18,08,26,17.50
2008,08,18,08,27,17.60
2008,08,18,08,28,17.60
2008,08,18,08,29,17.70
2008,08,18,08,30,17.70
2008,08,18,08,31,17.70
2008,08,18,08,32,17.70
2008,08,18,08,33,17.70
2008,08,18,08,34,17.80
2008,08,18,08,35,17.80
2008,08,18,08,36,17.90
2008,08,18,08,37,17.90
2008,08,18,08,38,18.00
2008,08,18,08,39,18.10
2008,08,18,08,40,18.10
2008,08,18,08,41,18.10
2008,08,18,08,42,18.20
2008,08,18,08,43,18.20
2008,08,18,08,44,18.20
2008,08,18,08,45,18.30
2008,08,18,08,46,18.30
2008,08,18,08,47,18.30
2008,08,18,08,48,18.30
2008,08,18,08,49,18.20
2008,08,18,08,50,18.20
2008,08,18,08,51,18.20
2008,08,18,08,52,18.20
2008,08,18,08,53,18.30
2008,08,18,08,54,18.30
2008,08,18,08,55,18.30
2008,08,18,08,56,18.30
2008,08,18,08,57,18.30
2008,08,18,08,58,18.40
2008,08,18,08,59,18.40
2008,08,18,09,00,18.40
2008,08,18,09,01,18.40
2008,08,18,09,02,18.40
2008,08,18,09,03,18.50
2008,08,18,09,04,18.60
2008,08,18,09,05,18.70
2008,08,18,09,06,18.80
2008,08,18,09,07,18.80
2008,08,18,09,08,18.90
2008,08,18,09,09,18.90
2008,08,18,09,10,18.90
2008,08,18,09,11,18.90
2008,08,18,09,12,19.00
2008,08,18,09,13,19.10
2008,08,18,09,14,19.10
2008,08,18,09,15,19.20
2008,08,18,09,16,19.30
2008,08,18,09,17,19.50
2008,08,18,09,18,19.60
2008,08,18,09,19,19.70
2008,08,18,09,20,19.80
2008,08,18,09,21,19.90
2008,08,18,09,22,19.90
2008,08,18,09,23,19.90
2008,08,18,09,24,19.90
2008,08,18,09,25,19.90
2008,08,18,09,26,19.90
2008,08,18,09,27,20.10
2008,08,18,09,28,20.10
2008,08,18,09,29,20.10
2008,08,18,09,30,20.10
2008,08,18,09,31,20.20
2008,08,18,09,32,20.20
2008,08,18,09,33,20.20
2008,08,18,09,34,20.30
2008,08,18,09,35,20.30
2008,08,18,09,36,20.50
2008,08,18,09,37,20.50
2008,08,18,09,38,20.60
2008,08,18,09,39,20.60
2008,08,18,09,40,20.50
2008,08,18,09,41,20.50
2008,08,18,09,42,20.50
2008,08,18,09,43,20.50
2008,08,18,09,44,20.60
2008,08,18,09,45,20.70
2008,08,18,09,46,20.80
2008,08,18,09,47,20.80
2008,08,18,09,48,20.80
2008,08,18,09,49,20.80
2008,08,18,09,50,20.60
2008,08,18,09,51,20.60
2008,08,18,09,52,20.50
2008,08,18,09,53,20.50
2008,08,18,09,54,20.60
2008,08,18,09,55,20.70
2008,08,18,09,56,20.70
2008,08,18,09,57,20.80
2008,08,18,09,58,20.90
2008,08,18,09,59,20.90
2008,08,18,10,00,20.80
2008,08,18,10,01,20.80
2008,08,18,10,02,20.80
2008,08,18,10,03,20.80
2008,08,18,10,04,20.80
2008,08,18,10,05,20.90
2008,08,18,10,06,20.90
2008,08,18,10,07,21.00
2008,08,18,10,08,21.10
2008,08,18,10,09,21.20
2008,08,18,10,10,21.30
2008,08,18,10,11,21.40
2008,08,18,10,12,21.40
2008,08,18,10,13,21.40
2008,08,18,10,14,21.50
2008,08,18,10,15,21.60
2008,08,18,10,16,21.60
2008,08,18,10,17,21.50
2008,08,18,10,18,21.40
2008,08,18,10,19,21.40
2008,08,18,10,20,21.40
2008,08,18,10,21,21.40
2008,08,18,10,22,21.50
2008,08,18,10,23,21.60
2008,08,18,10,24,21.60
2008,08,18,10,25,21.60
2008,08,18,10,26,21.60
2008,08,18,10,27,21.60
2008,08,18,10,28,21.60
2008,08,18,10,29,21.60
2008,08,18,10,30,21.60
2008,08,18,10,31,21.60
2008,08,18,10,32,21.60
2008,08,18,10,33,21.70
2008,08,18,10,34,21.80
2008,08,18,10,35,21.90
2008,08,18,10,36,22.10
2008,08,18,10,37,22.20
2008,08,18,10,38,22.30
2008,08,18,10,39,22.30
2008,08,18,10,40,22.30
2008,08,18,10,41,22.30
2008,08,18,10,42,22.30
2008,08,18,10,43,22.30
2008,08,18,10,44,22.30
2008,08,18,10,45,22.30
2008,08,18,10,46,22.20
2008,08,18,10,47,22.10
2008,08,18,10,48,22.10
2008,08,18,10,49,22.10
2008,08,18,10,50,22.10
2008,08,18,10,51,22.10
2008,08,18,10,52,22.10
2008,08,18,10,53,22.00
2008,08,18,10,54,21.80
2008,08,18,10,55,21.70
2008,08,18,10,56,21.60
2008,08,18,10,57,21.60
2008,08,18,10,58,21.50
2008,08,18,10,59,21.30
2008,08,18,11,00,21.20
2008,08,18,11,01,21.00
2008,08,18,11,02,20.90
2008,08,18,11,03,20.80
2008,08,18,11,04,20.80
2008,08,18,11,05,20.70
2008,08,18,11,06,20.60
2008,08,18,11,07,20.60
2008,08,18,11,08,20.60
2008,08,18,11,09,20.50
2008,08,18,11,10,20.50
2008,08,18,11,11,20.50
2008,08,18,11,12,20.50
2008,08,18,11,13,20.50
2008,08,18,11,14,20.40
2008,08,18,11,15,20.40
2008,08,18,11,16,20.40
2008,08,18,11,17,20.40
2008,08,18,11,18,20.40
2008,08,18,11,19,20.40
2008,08,18,11,20,20.50
2008,08,18,11,21,20.50
2008,08,18,11,22,20.50
2008,08,18,11,23,20.60
2008,08,18,11,24,20.60
2008,08,18,11,25,20.70
2008,08,18,11,26,20.70
2008,08,18,11,27,20.80
2008,08,18,11,28,20.80
2008,08,18,11,29,20.80
2008,08,18,11,30,20.80
2008,08,18,11,31,20.80
2008,08,18,11,32,20.80
2008,08,18,11,33,20.80
2008,08,18,11,34,20.90
2008,08,18,11,35,20.90
2008,08,18,11,36,20.90
2008,08,18,11,37,21.00
2008,08,18,11,38,21.00
2008,08,18,11,39,21.10
2008,08,18,11,40,21.10
2008,08,18,11,41,21.10
2008,08,18,11,42,21.10
2008,08,18,11,43,21.10
2008,08,18,11,44,21.00
2008,08,18,11,45,20.90
2008,08,18,11,46,20.90
2008,08,18,11,47,20.80
2008,08,18,11,48,20.60
2008,08,18,11,49,20.50
2008,08,18,11,50,20.50
2008,08,18,11,51,20.50
2008,08,18,11,52,20.50
2008,08,18,11,53,20.50
2008,08,18,11,54,20.40
2008,08,18,11,55,20.40
2008,08,18,11,56,20.30
2008,08,18,11,57,20.20
2008,08,18,11,58,20.10
2008,08,18,11,59,20.00
2008,08,18,12,00,19.90
2008,08,18,12,01,19.90
2008,08,18,12,02,19.90
2008,08,18,12,03,19.90
2008,08,18,12,04,19.90
2008,08,18,12,05,19.90
2008,08,18,12,06,19.90
2008,08,18,12,07,20.10
2008,08,18,12,08,20.20
2008,08,18,12,09,20.20
2008,08,18,12,10,20.20
2008,08,18,12,11,20.20
2008,08,18,12,12,20.20
2008,08,18,12,13,20.30
2008,08,18,12,14,20.40
2008,08,18,12,15,20.40
2008,08,18,12,16,20.50
2008,08,18,12,17,20.50
2008,08,18,12,18,20.60
2008,08,18,12,19,20.60
2008,08,18,12,20,20.60
2008,08,18,12,21,20.70
2008,08,18,12,22,20.80
2008,08,18,12,23,20.80
2008,08,18,12,24,20.90
2008,08,18,12,25,21.00
2008,08,18,12,26,21.00
2008,08,18,12,27,21.10
2008,08,18,12,28,21.10
2008,08,18,12,29,21.10
2008,08,18,12,30,21.10
2008,08,18,12,31,21.10
2008,08,18,12,32,21.10
2008,08,18,12,33,21.10
2008,08,18,12,34,21.20
2008,08,18,12,35,21.20
2008,08,18,12,36,21.10
2008,08,18,12,37,21.10
2008,08,18,12,38,21.10
2008,08,18,12,39,21.10
2008,08,18,12,40,21.20
2008,08,18,12,41,21.20
2008,08,18,12,42,21.20
2008,08,18,12,43,21.20
2008,08,18,12,44,21.30
2008,08,18,12,45,21.30
2008,08,18,12,46,21.30
2008,08,18,12,47,21.20
2008,08,18,12,48,21.10
2008,08,18,12,49,21.00
2008,08,18,12,50,20.90
2008,08,18,12,51,20.80
2008,08,18,12,52,20.70
2008,08,18,12,53,20.60
2008,08,18,12,54,20.50
2008,08,18,12,55,20.40
2008,08,18,12,56,20.20
2008,08,18,12,57,20.20
2008,08,18,12,58,20.20
2008,08,18,12,59,20.20
2008,08,18,13,00,20.20
2008,08,18,13,01,20.20
2008,08,18,13,02,20.20
2008,08,18,13,03,20.20
2008,08,18,13,04,20.20
2008,08,18,13,05,20.20
2008,08,18,13,06,20.20
2008,08,18,13,07,20.20
2008,08,18,13,08,20.20
2008,08,18,13,09,20.20
2008,08,18,13,10,20.20
2008,08,18,13,11,20.20
2008,08,18,13,12,20.20
2008,08,18,13,13,20.20
2008,08,18,13,14,20.20
2008,08,18,13,15,20.20
2008,08,18,13,16,20.30
2008,08,18,13,17,20.30
2008,08,18,13,18,20.40
2008,08,18,13,19,20.30
2008,08,18,13,20,20.30
2008,08,18,13,21,20.20
2008,08,18,13,22,20.20
2008,08,18,13,23,20.20
2008,08,18,13,24,20.20
2008,08,18,13,25,20.10
2008,08,18,13,26,20.00
2008,08,18,13,27,19.90
2008,08,18,13,28,19.80
2008,08,18,13,29,19.80
2008,08,18,13,30,19.80
2008,08,18,13,31,19.80
2008,08,18,13,32,19.80
2008,08,18,13,33,19.80
2008,08,18,13,34,19.80
2008,08,18,13,35,19.90
2008,08,18,13,36,19.90
2008,08,18,13,37,19.90
2008,08,18,13,38,19.90
2008,08,18,13,39,19.90
2008,08,18,13,40,19.90
2008,08,18,13,41,19.90
2008,08,18,13,42,19.90
2008,08,18,13,43,19.90
2008,08,18,13,44,19.90
2008,08,18,13,45,19.90
2008,08,18,13,46,19.90
2008,08,18,13,47,19.90
2008,08,18,13,48,19.90
2008,08,18,13,49,19.90
2008,08,18,13,50,19.90
2008,08,18,13,51,19.90
2008,08,18,13,52,19.90
2008,08,18,13,53,19.90
2008,08,18,13,54,19.90
2008,08,18,13,55,19.90
2008,08,18,13,56,19.90
2008,08,18,13,57,19.90
2008,08,18,13,58,19.80
2008,08,18,13,59,19.80
2008,08,18,14,00,19.80
2008,08,18,14,01,19.80
2008,08,18,14,02,19.70
2008,08,18,14,03,19.60
2008,08,18,14,04,19.60
2008,08,18,14,05,19.50
2008,08,18,14,06,19.40
2008,08,18,14,07,19.40
2008,08,18,14,08,19.30
2008,08,18,14,09,19.20
2008,08,18,14,10,19.20
2008,08,18,14,11,19.10
2008,08,18,14,12,19.10
2008,08,18,14,13,19.10
2008,08,18,14,14,19.10
2008,08,18,14,15,19.00
2008,08,18,14,16,18.90
2008,08,18,14,17,18.90
2008,08,18,14,18,18.90
2008,08,18,14,19,18.90
2008,08,18,14,20,18.90
2008,08,18,14,21,18.90
2008,08,18,14,22,18.90
2008,08,18,14,23,18.90
2008,08,18,14,24,18.90
2008,08,18,14,25,18.90
2008,08,18,14,26,18.90
2008,08,18,14,27,18.90
2008,08,18,14,28,18.90
2008,08,18,14,29,18.90
2008,08,18,14,30,18.90
2008,08,18,14,31,18.90
2008,08,18,14,32,18.90
2008,08,18,14,33,18.90
2008,08,18,14,34,18.90
2008,08,18,14,35,18.90
2008,08,18,14,36,18.90
2008,08,18,14,37,18.90
2008,08,18,14,38,18.90
2008,08,18,14,39,18.90
2008,08,18,14,40,19.10
2008,08,18,14,41,19.10
2008,08,18,14,42,19.10
2008,08,18,14,43,19.30
2008,08,18,14,44,19.40
2008,08,18,14,45,19.50
2008,08,18,14,46,19.60
2008,08,18,14,47,19.70
2008,08,18,14,48,19.80
2008,08,18,14,49,19.90
2008,08,18,14,50,19.90
2008,08,18,14,51,19.90
2008,08,18,14,52,19.90
2008,08,18,14,53,19.90
2008,08,18,14,54,20.00
2008,08,18,14,55,20.10
2008,08,18,14,56,20.10
2008,08,18,14,57,20.10
2008,08,18,14,58,20.10
2008,08,18,14,59,20.10
2008,08,18,15,00,20.20
2008,08,18,15,01,20.20
2008,08,18,15,02,20.30
2008,08,18,15,03,20.50
2008,08,18,15,04,20.60
2008,08,18,15,05,20.60
2008,08,18,15,06,20.70
2008,08,18,15,07,20.80
2008,08,18,15,08,20.90
2008,08,18,15,09,21.00
2008,08,18,15,10,21.10
2008,08,18,15,11,21.20
2008,08,18,15,12,21.20
2008,08,18,15,13,21.30
2008,08,18,15,14,21.30
2008,08,18,15,15,21.30
2008,08,18,15,16,21.30
2008,08,18,15,17,21.30
2008,08,18,15,18,21.40
2008,08,18,15,19,21.40
2008,08,18,15,20,21.40
2008,08,18,15,21,21.50
2008,08,18,15,22,21.60
2008,08,18,15,23,21.60
2008,08,18,15,24,21.60
2008,08,18,15,25,21.60
2008,08,18,15,26,21.60
2008,08,18,15,27,21.60
2008,08,18,15,28,21.60
2008,08,18,15,29,21.60
2008,08,18,15,30,21.60
2008,08,18,15,31,21.60
2008,08,18,15,32,21.60
2008,08,18,15,33,21.60
2008,08,18,15,34,21.60
2008,08,18,15,35,21.60
2008,08,18,15,36,21.60
2008,08,18,15,37,21.60
2008,08,18,15,38,21.70
2008,08,18,15,39,21.70
2008,08,18,15,40,21.80
2008,08,18,15,41,21.80
2008,08,18,15,42,21.80
2008,08,18,15,43,21.90
2008,08,18,15,44,21.90
2008,08,18,15,45,22.00
2008,08,18,15,46,22.00
2008,08,18,15,47,22.00
2008,08,18,15,48,21.90
2008,08,18,15,49,21.90
2008,08,18,15,50,21.80
2008,08,18,15,51,21.70
2008,08,18,15,52,21.60
2008,08,18,15,53,21.60
2008,08,18,15,54,21.60
2008,08,18,15,55,21.60
2008,08,18,15,56,21.50
2008,08,18,15,57,21.40
2008,08,18,15,58,21.40
2008,08,18,15,59,21.40
2008,08,18,16,00,21.30
2008,08,18,16,01,21.30
2008,08,18,16,02,21.30
2008,08,18,16,03,21.30
2008,08,18,16,04,21.20
2008,08,18,16,05,21.20
2008,08,18,16,06,21.10
2008,08,18,16,07,21.10
2008,08,18,16,08,21.10
2008,08,18,16,09,21.00
2008,08,18,16,10,20.90
2008,08,18,16,11,20.90
2008,08,18,16,12,20.80
2008,08,18,16,13,20.80
2008,08,18,16,14,20.70
2008,08,18,16,15,20.60
2008,08,18,16,16,20.50
2008,08,18,16,17,20.50
2008,08,18,16,18,20.50
2008,08,18,16,19,20.50
2008,08,18,16,20,20.40
2008,08,18,16,21,20.30
2008,08,18,16,22,20.30
2008,08,18,16,23,20.20
2008,08,18,16,24,20.20
2008,08,18,16,25,20.10
2008,08,18,16,26,20.00
2008,08,18,16,27,19.90
2008,08,18,16,28,19.90
2008,08,18,16,29,19.80
2008,08,18,16,30,19.80
2008,08,18,16,31,19.80
2008,08,18,16,32,19.80
2008,08,18,16,33,19.80
2008,08,18,16,34,19.80
2008,08,18,16,35,19.70
2008,08,18,16,36,19.70
2008,08,18,16,37,19.60
2008,08,18,16,38,19.60
2008,08,18,16,39,19.50
2008,08,18,16,40,19.50
2008,08,18,16,41,19.50
2008,08,18,16,42,19.40
2008,08,18,16,43,19.40
2008,08,18,16,44,19.40
2008,08,18,16,45,19.40
2008,08,18,16,46,19.40
2008,08,18,16,47,19.40
2008,08,18,16,48,19.40
2008,08,18,16,49,19.30
2008,08,18,16,50,19.30
2008,08,18,16,51,19.20
2008,08,18,16,52,19.10
2008,08,18,16,53,19.10
2008,08,18,16,54,19.10
2008,08,18,16,55,19.10
2008,08,18,16,56,19.10
2008,08,18,16,57,19.10
2008,08,18,16,58,19.10
2008,08,18,16,59,19.10
2008,08,18,17,00,19.10
2008,08,18,17,01,19.10
2008,08,18,17,02,19.10
2008,08,18,17,03,19.10
2008,08,18,17,04,19.10
2008,08,18,17,05,19.10
2008,08,18,17,06,19.10
2008,08,18,17,07,19.10
2008,08,18,17,08,19.00
2008,08,18,17,09,18.90
2008,08,18,17,10,18.90
2008,08,18,17,11,18.90
2008,08,18,17,12,18.90
2008,08,18,17,13,18.90
2008,08,18,17,14,18.90
2008,08,18,17,15,18.90
2008,08,18,17,16,18.80
2008,08,18,17,17,18.80
2008,08,18,17,18,18.80
2008,08,18,17,19,18.80